Home > Weather > Traralgon > Past weeks

Flag for Australia Weather for the Past 2 Weeks in Traralgon, Victoria, Australia

Now
47 °F

Cool.


Feels Like: 47 °F
Forecast: 47 / 77 °F
Wind: 1 mph from West

Location: Latrobe Valley Airport

Current Time: May 7, 2016 at 9:41:09 AM

Latest Report: May 7, 2016 at 8:00 AM


Visibility: N/A

Pressure: 30.06 "Hg

Humidity: 97%

Dew Point: 46 °F

Location of TraralgonLocation

Historic Weather in Traralgon — Graph

°F

Traralgon Temperature Yesterday

Maximum temperature yesterday: 79 °F (at 2:00 PM)
Minimum temperature yesterday: 43 °F (at 3:00 AM)
Average temperature yesterday: 59 °F

High & Low Weather Summary for the Past Weeks

 TemperatureHumidityPressure
High79 °F (May 6, 2:00 PM)98% (Apr 24, 8:00 AM)30.47 "Hg (Apr 24, 8:00 AM)
Low39 °F (Apr 27, 5:00 AM)33% (May 6, 2:00 PM)29.41 "Hg (May 3, 2:00 PM)
Average56 °F75%30.06 "Hg
* Reported Apr 22 8:00 AM — May 7 8:00 AM, Traralgon, Weather by CustomWeather, © 2016

Note: Actual official high and low records may vary slightly from our data, if they occured in-between our weather recording intervals... More about our weather records

Advertising

Traralgon Weather History for the Previous 24 Hours

Scroll right to see more
 ConditionsComfort  
Time TempWeatherWind HumidityBarometerVisibility
8:00 AM
Sat, May 7
47 °FCool.1 mph97%30.06 "HgN/A
6:00 AM47 °FLow clouds.No wind96%30.03 "Hg4 mi
5:00 AM48 °FCool.No wind96%30.02 "HgN/A
3:00 AM53 °FPassing clouds.6 mph92%30.01 "HgN/A
2:00 AM54 °FCool.7 mph92%30.03 "HgN/A
12:00 AM54 °FCool.6 mph90%30.04 "HgN/A
11:00 PM
Fri, May 6
56 °FCool.6 mph87%30.05 "HgN/A
9:00 PM57 °FCool.3 mph83%30.05 "HgN/A
8:00 PM57 °FCool.2 mph78%30.03 "HgN/A
6:00 PM66 °FMild.5 mph53%29.97 "HgN/A
5:00 PM71 °FMild.8 mph46%29.95 "HgN/A
3:00 PM78 °FPleasantly warm.13 mph36%29.92 "HgN/A
2:00 PM79 °FPleasantly warm.13 mph33%29.92 "HgN/A
12:00 PM76 °FMild.5 mph41%29.95 "HgN/A
11:00 AM72 °FMild.3 mph48%29.97 "HgN/A
9:00 AM56 °FCool.2 mph79%29.98 "HgN/A
Weather by CustomWeather, © 2016

See weather overviewHow to use our weather pages